Погода в Архангельском

Россия / Тульская область     53°19′48″N   37°06′35″E
темп.,
°C
ветер,
м/с
пор.,
м/с
влажн.,
%
обл.,
%
осадки,
мм/ч
давл.,
гПа
погр.,
м
6 декабря, пн
пн600:00−5ююв2393100 0.0 101951
03:00−4ююв2588100 0.0 1020100
06:00−4юв3585100 0.0 1019131
09:00−3юв3779100 0.0 1020195
12:00−2юв4970100 0.0 1020393
15:00−2юв51067100 0.0 1019373
18:00−2юв4970100 0.0 1020325
21:00−3юв51176100 0.0 1019335
7 декабря, вт
вт700:00−2юв61390100 0.1 1018437
03:00−1юв71597100 1.6 1016529
06:000юв81894100 2.7 1014625
09:00+1ююв81697100 3.4 1013519
12:00+1ююв71499100 0.1 1012430
15:00+2ююв61399100 0.8 1012337
18:00+3ююв61399100 0.2 1011336
21:00+3ю615100100 0.5 1011337
8 декабря, ср
ср800:00+3ююв61398100 4.7 1011328
03:00+2ююв41097100 8.8 1012239
06:00+1ююв4897100 1.0 1013209
09:000юв2597100 1.0 1014102
12:00+1вюв2398100 0.0 1014102
15:00+1в3597100 0.0 1014110
18:00+1в3797100 0.0 1014170
21:000в3697100 0.0 1014155
9 декабря, чт
чт900:00+1в3697100 0.0 1014154
03:00+1всв3598100 0.0 1014137
06:00+1в3798100 0.1 1014205
09:00+1в4797100 0.1 1015203
12:00+1в3798100 0.3 1016193
15:00+2в3698100 0.3 1016175
18:00+1в3798100 0.1 1017170
21:00+1в4898100 0.6 1018228
10 декабря, пт
пт1000:00+1в3698100 0.3 1019156
03:00+2вюв3498100 0.3 101984
06:00+2вюв3498100 0.0 101981
09:00+2вюв3598100 0.1 1020108
12:00+2вюв3698100 0.0 1021206
15:00+2вюв3697100 0.0 1021179
18:00+2вюв4896100 0.0 1021215
21:00+2вюв4996100 0.0 1021240